Theta_e
340 339 340 344 349 348 348 348 350 352 352 352 352 352 350 349 349 349 349 351 352 352 352 351 351 352 352 352 352 352 351 350 350 349 348 348 348 348 347 347 346 345 344 344 343 343 343 343 343 343 343 344 346 346 347 347 346 344 344 345 345 345 346 347 346 346 346 347 348 348 348 347 348 347 345 344 344 343 342 342 342 340 342 345 349
339 339 340 342 349 348 348 347 350 352 351 352 352 351 350 349 349 349 349 349 351 352 351 351 351 351 352 351 351 351 350 350 350 349 349 348 348 347 346 346 344 344 345 344 343 342 342 341 341 340 342 344 344 344 344 344 344 343 342 344 345 345 345 346 346 346 346 345 345 345 344 346 346 346 345 344 343 342 340 340 341 338 340 345 346
339 340 340 342 348 346 347 350 350 352 352 352 351 351 349 349 349 349 349 351 352 351 351 351 351 351 351 350 350 350 350 350 349 349 349 348 347 346 345 345 344 345 345 344 343 343 341 340 339 338 340 342 342 343 343 342 342 342 342 344 344 345 346 346 346 346 345 344 343 343 342 344 344 344 343 343 342 342 340 340 339 339 337 342 342
340 341 343 343 346 348 347 349 350 351 351 351 351 350 349 349 349 349 349 349 351 351 350 350 350 350 349 350 349 349 349 349 349 349 349 348 347 346 345 345 345 344 344 344 342 341 340 338 337 337 339 340 341 341 341 340 341 341 343 343 343 344 345 345 345 345 344 344 342 341 340 338 340 343 342 341 341 341 339 340 340 340 340 340 341
340 342 344 344 344 347 349 349 349 351 351 351 351 350 349 349 349 349 349 350 350 350 349 350 349 349 349 349 349 348 348 349 349 349 349 348 347 346 345 345 344 344 343 343 342 340 339 338 336 337 338 338 339 339 339 339 340 341 343 343 342 344 344 344 344 344 343 342 341 339 336 337 338 342 343 341 340 340 339 339 339 340 338 338 339
341 345 347 344 342 345 347 349 350 351 351 351 351 350 349 349 349 349 349 349 350 350 350 350 348 347 348 348 347 347 348 348 348 348 348 347 346 346 345 344 344 344 343 343 341 340 339 337 335 337 338 338 337 337 338 339 341 342 342 342 342 343 343 343 342 341 340 340 339 336 335 336 337 340 343 340 338 338 338 338 339 339 338 338 338
345 347 347 344 343 344 346 350 350 351 351 351 350 350 349 350 350 349 349 350 349 350 350 349 348 347 347 347 347 347 346 347 348 348 348 347 346 345 345 344 344 344 343 342 341 339 338 336 334 336 337 337 337 337 338 340 341 341 342 342 343 342 342 342 341 340 338 336 333 334 334 335 336 338 341 340 338 338 337 338 338 338 338 337 337
347 347 348 345 343 344 345 349 351 350 351 351 350 350 349 349 350 349 349 349 349 349 349 348 348 348 346 346 347 346 346 346 347 347 347 347 347 345 345 344 344 344 343 342 340 339 338 335 333 335 336 336 336 337 338 339 340 341 341 341 342 342 342 341 340 339 339 334 333 333 334 334 334 336 341 339 337 338 337 336 336 337 337 337 334
347 348 348 346 344 343 344 347 350 350 351 351 351 350 349 348 349 349 348 348 348 347 348 349 348 348 347 347 346 345 346 345 346 346 347 346 346 345 344 344 343 343 343 341 340 339 337 334 332 334 335 334 336 336 337 339 340 340 341 341 341 341 340 340 338 337 335 333 333 334 334 334 334 334 339 339 337 337 336 334 334 336 335 334 334
346 348 348 346 343 341 343 344 347 349 350 350 350 350 350 349 348 348 347 347 347 347 348 348 348 348 347 347 346 345 345 345 345 346 346 345 345 344 344 343 342 343 342 340 339 338 336 333 331 332 334 335 336 336 337 338 339 339 341 341 341 339 337 336 334 332 329 330 329 331 336 338 333 335 337 338 336 336 333 333 332 332 333 333 334
345 347 348 344 341 342 345 347 346 345 349 349 349 350 349 348 348 347 347 347 347 347 347 347 347 347 347 347 347 346 345 345 345 345 345 345 344 343 342 342 342 341 340 340 339 338 337 333 330 330 333 335 335 335 336 337 338 339 340 340 339 338 336 333 330 326 327 328 328 328 333 338 334 334 338 337 336 335 333 333 333 333 333 334 334
344 346 347 345 344 340 345 347 346 346 349 347 346 348 350 349 348 347 347 347 347 347 347 347 347 347 347 346 346 346 345 345 345 345 345 345 344 342 342 342 341 340 339 338 337 337 335 330 330 330 332 334 334 334 335 336 336 337 338 338 337 335 333 330 326 325 326 326 327 329 328 328 332 336 338 337 335 334 333 333 332 333 333 333 333
344 346 347 346 343 340 344 348 346 348 349 348 347 349 347 349 348 347 347 348 347 347 347 347 346 346 346 347 346 346 345 345 345 345 344 344 343 342 341 341 340 339 338 337 336 336 334 329 328 329 332 333 333 333 334 334 334 336 337 336 334 333 330 328 323 324 324 325 326 326 327 328 330 338 337 337 335 333 333 333 331 332 333 333 333
343 344 345 346 344 342 339 341 344 347 347 348 348 348 347 348 348 348 347 349 347 346 347 347 346 346 346 346 346 345 345 345 345 344 344 343 342 342 341 340 340 339 337 336 335 334 333 329 327 329 331 332 332 332 332 332 333 335 334 334 332 329 326 324 324 321 322 323 325 325 325 330 330 336 336 335 333 333 333 333 331 330 332 332 332
338 338 341 342 342 342 339 337 340 343 344 346 342 344 348 347 348 348 347 347 347 346 347 346 346 346 346 346 346 345 345 344 345 344 344 343 342 341 341 340 340 338 337 336 334 333 331 328 327 328 330 331 330 330 330 330 333 333 332 331 328 326 323 317 318 318 319 322 322 324 324 328 336 335 334 334 333 333 333 333 332 330 330 331 331
327 332 333 333 338 340 341 339 337 337 341 343 343 343 346 346 347 347 348 348 347 346 346 346 346 345 345 345 346 345 345 344 344 344 343 343 342 342 341 341 339 338 337 335 334 333 330 327 325 326 328 329 329 328 328 329 331 331 330 328 326 323 320 317 314 315 316 319 321 323 323 327 336 334 333 333 333 333 333 332 332 331 330 330 330
318 321 321 324 324 329 336 341 338 334 335 337 339 340 339 339 343 347 346 347 347 348 347 347 346 345 345 345 345 345 344 344 344 343 343 343 342 342 341 340 339 338 336 335 334 332 330 327 325 325 326 326 326 325 326 326 327 328 327 326 324 321 318 315 311 311 314 317 318 320 323 328 334 333 333 333 332 332 331 331 330 330 331 330 330
317 317 318 320 319 322 326 330 338 340 338 334 333 336 339 342 342 341 343 344 345 347 346 346 345 345 344 343 342 343 343 344 343 343 343 343 342 340 341 339 338 338 336 335 334 332 329 328 325 325 325 324 323 322 323 323 325 325 324 322 321 318 315 312 305 306 310 316 314 319 323 333 333 333 333 333 332 332 331 330 330 329 330 329 329
315 315 316 316 316 319 323 324 325 334 338 338 338 337 335 338 340 339 340 342 343 342 343 342 341 343 342 339 338 337 336 337 338 340 340 339 337 335 339 339 338 337 336 334 334 332 330 328 326 324 323 323 323 322 322 322 322 322 322 319 316 315 313 306 301 301 304 308 311 315 321 330 333 332 332 332 332 332 331 330 330 329 328 328 328
313 314 315 314 315 317 320 324 321 323 331 337 337 337 332 332 335 336 336 336 337 339 337 336 335 335 334 332 329 329 328 330 329 333 333 338 335 332 336 337 338 337 336 335 334 333 331 328 326 324 323 322 322 322 321 321 320 319 318 317 314 311 305 302 300 299 300 305 310 312 322 325 331 333 333 332 332 331 330 330 331 330 333 333 328
311 312 313 313 314 315 316 318 319 320 323 331 333 335 335 329 331 330 332 334 334 333 333 326 325 324 326 323 326 334 335 333 331 333 327 332 326 328 333 337 338 337 336 335 335 334 332 331 328 326 324 323 321 317 318 319 318 317 315 312 310 305 304 302 300 301 300 303 308 313 321 323 325 327 328 330 330 329 329 330 331 333 333 335 330
307 309 311 312 313 314 313 315 317 319 320 324 330 336 335 331 337 335 335 332 329 327 328 332 330 330 322 329 335 333 334 333 333 332 330 328 325 325 331 336 338 336 336 335 334 334 334 333 331 329 327 324 317 307 307 312 316 313 311 307 302 302 303 302 301 300 301 302 308 318 322 322 324 327 328 327 327 326 326 326 326 328 329 330 333
304 305 307 309 311 312 314 314 316 317 318 320 324 332 336 336 337 336 335 330 331 331 332 331 333 332 333 333 332 335 335 333 332 331 332 323 326 323 329 333 334 333 335 336 335 334 334 334 331 329 326 320 310 308 307 305 305 308 305 300 299 300 301 302 301 300 300 305 306 321 323 323 324 326 326 326 326 325 326 327 327 327 328 329 330
303 302 305 307 308 310 312 313 315 316 317 319 321 327 336 338 337 337 336 334 333 332 332 332 333 332 332 329 330 332 333 331 327 326 327 327 325 322 326 328 330 329 330 332 332 333 332 330 328 323 318 313 310 309 307 305 306 305 303 300 299 299 300 300 300 300 300 305 309 320 323 325 326 326 327 327 326 325 325 325 325 325 326 327 328
302 302 303 305 306 307 309 312 314 315 317 319 319 325 331 338 337 337 336 335 334 334 334 335 334 334 333 331 330 329 331 330 330 328 327 327 328 329 330 330 331 331 326 330 329 325 322 320 321 319 315 314 312 310 309 308 307 306 305 303 302 301 301 301 301 301 301 303 312 320 321 324 326 328 328 328 328 326 326 326 325 324 323 323 325
300 304 305 305 306 306 306 309 312 314 317 318 320 327 331 335 336 336 335 335 333 332 332 332 333 333 332 330 329 330 330 330 329 328 328 328 328 328 327 326 327 327 326 327 325 323 322 321 322 319 316 315 313 310 308 307 309 307 306 305 304 303 303 303 303 303 303 305 312 319 321 322 325 326 325 326 327 328 327 326 327 326 326 325 325
302 304 305 306 308 309 308 307 312 316 318 320 327 330 331 330 330 330 331 330 330 329 329 329 330 330 329 329 328 328 327 327 326 326 326 327 326 326 327 326 326 325 325 326 324 323 324 322 319 318 317 317 316 313 310 308 307 309 308 307 306 306 305 304 303 302 302 304 310 317 319 320 323 325 327 328 327 327 326 326 327 326 325 326 326
305 306 307 308 311 312 310 308 313 317 321 328 328 327 327 325 325 324 325 324 326 325 325 326 327 327 327 327 326 326 325 324 324 324 323 324 323 324 324 324 324 324 324 324 323 322 321 320 319 318 316 316 316 314 311 310 309 309 310 310 309 309 306 304 303 302 301 302 305 311 316 318 319 322 324 324 325 325 326 325 327 328 328 326 325
307 308 308 310 312 312 312 313 316 320 327 327 326 325 324 322 321 321 320 319 320 320 321 322 323 323 324 324 325 323 323 322 322 321 322 321 321 321 321 321 322 321 321 321 321 320 320 319 318 316 316 315 315 315 314 313 311 309 311 312 312 310 307 304 303 302 302 301 301 304 311 311 313 314 316 318 320 320 322 324 325 326 326 326 326
307 307 308 310 312 314 315 320 323 326 326 324 323 321 320 317 317 316 317 316 317 317 318 318 319 321 320 321 322 322 321 320 320 320 319 318 318 318 317 317 318 319 319 318 319 318 317 316 315 314 312 311 311 312 313 312 311 309 310 311 311 309 306 304 303 302 302 301 300 299 305 307 308 311 312 314 316 317 319 322 324 324 325 325 325
307 307 308 310 312 314 316 322 322 321 321 318 317 316 316 314 314 315 314 313 316 315 315 316 316 317 318 318 318 318 318 318 317 316 315 315 314 314 314 313 313 314 314 313 313 312 311 310 309 309 307 306 306 308 309 309 310 310 311 311 309 307 304 303 302 302 301 301 300 299 298 303 304 306 309 311 312 314 315 318 321 323 324 324 324
306 307 307 309 312 312 314 317 317 315 315 314 313 312 312 311 311 312 311 312 313 313 313 313 312 313 313 313 313 313 313 313 313 313 312 311 310 310 310 309 308 308 307 307 306 305 304 303 303 303 304 304 304 304 306 307 308 309 309 308 307 304 303 302 301 301 301 300 299 298 297 297 299 302 304 307 310 310 312 313 316 318 319 322 323
305 306 307 309 310 310 311 313 313 313 312 311 311 310 310 310 309 309 309 310 310 310 310 311 310 310 310 310 310 310 310 310 309 309 308 308 307 306 305 305 304 303 302 301 301 301 300 299 299 300 300 301 301 302 305 306 306 307 307 306 304 302 302 301 300 300 299 299 298 297 295 294 293 297 299 301 304 307 309 309 311 314 315 317 318
305 306 308 308 309 310 310 310 310 310 310 310 309 308 308 307 307 306 305 306 306 307 307 308 308 308 307 307 307 307 306 306 306 306 306 305 304 304 303 302 302 300 299 298 297 297 297 296 296 296 297 297 298 299 303 303 303 303 303 303 302 300 299 298 298 298 297 297 296 295 294 292 292 291 292 296 298 302 306 307 307 310 312 313 314
306 306 306 307 307 307 308 308 308 308 308 307 308 306 306 305 304 305 304 303 303 304 304 304 305 305 305 304 304 304 304 303 302 302 303 302 302 301 301 301 301 300 298 297 295 294 294 293 294 294 293 294 295 296 298 299 298 298 298 299 298 297 296 294 294 293 293 293 293 292 292 291 290 290 290 288 292 296 301 303 305 306 309 310 311
306 306 305 306 306 306 307 306 306 306 305 305 304 303 303 303 302 303 302 301 300 300 301 302 302 303 302 302 302 301 300 300 300 300 299 299 299 299 299 299 299 298 297 295 293 292 291 290 290 291 294 294 296 295 295 295 295 295 295 295 295 294 292 291 290 289 289 289 289 290 290 289 288 288 290 287 287 290 297 299 301 303 305 307 309
306 305 304 305 305 305 305 305 304 303 302 302 301 301 300 300 300 300 299 299 298 298 299 299 300 299 299 299 299 299 298 298 298 298 297 296 295 295 296 296 296 294 293 292 292 291 290 290 288 289 291 293 294 294 293 293 293 292 292 292 292 292 291 290 289 288 288 286 286 286 288 288 288 289 286 286 286 286 290 296 297 298 299 304 307
305 304 304 305 304 304 304 303 302 301 300 300 299 299 298 297 297 297 296 295 295 295 295 296 295 296 296 296 296 296 296 296 296 296 295 294 293 292 292 292 291 291 290 290 289 289 288 289 288 288 289 292 293 293 291 291 292 291 290 290 290 290 290 289 288 288 286 285 285 284 285 286 286 285 284 284 285 285 285 289 292 293 294 300 304
304 305 304 304 304 303 302 302 301 300 299 299 298 297 297 296 295 295 294 294 293 293 293 293 294 293 293 293 293 293 294 294 294 294 293 292 291 290 289 289 289 289 288 288 287 287 287 287 288 287 287 287 288 289 291 291 290 290 289 288 287 287 288 288 287 286 284 284 285 286 285 284 284 284 283 283 284 284 284 284 284 284 285 295 300
305 305 304 303 303 302 301 301 301 299 298 297 297 296 295 294 293 294 293 292 292 291 291 291 292 292 292 292 292 292 292 292 292 291 291 290 289 289 288 288 288 287 287 286 286 285 286 286 286 287 287 287 286 285 287 290 289 289 289 288 287 286 286 286 285 285 284 283 283 283 283 283 283 283 283 282 283 283 283 283 285 284 284 288 295
303 303 303 302 301 301 300 299 299 298 297 297 297 296 294 294 293 292 290 290 290 290 290 290 290 290 290 290 289 289 289 289 289 289 289 289 288 287 287 286 287 287 286 285 285 285 285 285 285 286 286 286 284 284 284 286 290 288 288 287 287 286 287 285 284 283 283 282 282 282 282 282 282 282 281 282 282 282 282 283 283 283 284 284 286
301 301 302 302 302 301 299 298 299 298 298 297 297 297 296 295 292 290 290 290 290 289 288 288 288 288 288 288 288 288 288 288 288 288 287 287 286 286 286 285 286 286 286 285 285 286 284 284 284 284 283 283 282 282 283 285 287 285 285 285 287 285 285 284 284 283 282 282 282 281 281 281 281 281 281 281 281 281 282 282 282 282 283 284 284
301 301 302 302 301 300 299 299 299 299 298 297 296 293 293 292 291 290 289 287 289 289 287 287 287 286 286 286 286 286 287 286 286 287 286 286 285 285 285 284 284 285 284 284 283 283 283 282 282 283 282 282 282 283 282 283 284 282 283 284 283 282 287 280 281 282 281 281 281 281 281 280 280 281 281 281 280 280 281 281 282 282 283 283 284
300 300 300 301 301 300 299 299 298 296 295 295 293 292 291 290 290 290 289 288 288 288 287 286 286 286 285 285 285 285 285 285 285 285 285 285 285 284 284 284 284 284 284 283 282 282 282 282 282 283 282 281 279 281 282 282 281 283 286 283 282 279 277 276 277 279 279 279 280 280 281 280 280 281 280 280 280 280 280 281 281 281 282 283 283
298 299 300 300 300 299 298 297 296 295 293 293 291 291 290 289 288 288 288 286 287 286 286 284 284 285 284 284 283 284 284 284 284 284 285 284 284 284 284 283 283 283 283 283 282 282 281 281 281 281 281 281 279 278 281 281 280 282 282 278 277 276 276 275 275 278 278 278 279 279 281 280 279 280 279 280 280 280 280 280 280 280 281 282 282
298 298 299 299 298 297 296 294 294 293 292 291 291 290 290 288 287 287 286 284 283 284 283 283 283 283 282 282 283 283 283 284 284 284 284 284 283 283 283 283 282 282 283 282 282 281 281 281 281 280 280 280 280 279 278 281 281 281 280 279 278 277 276 276 274 276 276 277 277 278 278 279 278 278 279 279 279 279 281 280 280 280 280 281 281
298 298 298 297 296 295 295 293 293 292 292 291 291 291 289 289 289 288 287 285 283 282 282 282 283 282 283 282 282 282 283 283 283 283 283 283 283 283 282 282 282 282 283 282 281 281 281 281 281 281 280 282 279 279 279 279 279 280 280 280 280 278 275 274 276 274 273 274 276 277 276 278 277 277 278 278 278 278 279 280 279 279 279 280 280
297 297 296 295 294 293 293 292 291 291 291 290 290 290 289 288 287 286 286 284 284 282 282 282 282 283 282 282 282 282 282 282 283 282 282 283 282 282 282 282 282 282 282 281 281 280 281 281 281 280 280 279 279 279 277 276 276 278 279 279 279 278 277 277 275 275 275 273 274 275 275 277 277 276 277 277 278 278 278 278 279 278 278 279 279
296 296 295 294 293 292 292 291 291 290 290 290 289 289 289 288 286 285 284 283 283 283 283 284 282 282 281 281 281 281 281 281 281 282 281 282 282 282 281 281 281 281 281 281 280 280 280 279 279 280 280 279 280 278 278 276 277 277 277 277 277 276 276 276 275 276 275 273 272 273 274 275 275 275 276 277 277 277 278 277 279 278 280 278 278
296 295 294 293 292 292 291 290 289 289 289 289 289 287 286 286 285 284 283 283 283 282 282 282 281 281 281 280 281 281 280 281 281 280 281 281 281 281 281 281 280 281 281 280 280 280 280 279 279 279 279 279 279 279 278 277 277 276 276 277 276 276 275 276 275 274 274 274 274 273 273 273 273 275 276 277 278 277 276 277 276 276 277 277 277
294 293 292 292 292 291 290 289 289 289 289 288 287 286 285 285 285 284 284 283 282 282 281 281 281 281 280 280 280 280 280 280 280 280 280 280 280 281 280 280 280 281 280 279 279 279 279 279 279 278 278 279 278 278 279 278 277 277 277 276 276 276 276 275 274 275 273 273 272 272 273 274 274 273 275 276 278 276 276 276 276 276 276 277 277
Wind_Speed
1 2 3 3 9 9 11 8 8 9 9 10 11 11 11 11 11 11 11 13 12 12 12 13 13 14 14 14 14 14 15 15 16 16 16 16 17 17 17 17 16 16 16 16 16 15 15 14 14 14 14 14 14 14 14 15 16 16 15 15 15 16 14 14 15 16 16 17 19 18 17 18 19 18 18 19 18 18 18 18 16 11 9 13 19
5 2 3 3 9 10 11 8 11 10 10 10 10 10 10 10 10 10 9 12 12 12 14 14 14 15 15 14 14 14 15 15 15 16 16 16 17 17 16 16 16 16 16 16 16 16 15 14 14 14 14 14 14 14 14 14 15 15 14 14 15 15 14 14 15 15 15 15 16 17 17 18 17 17 18 18 18 18 17 18 18 10 7 16 18
3 3 3 3 9 6 5 11 11 11 11 11 11 10 9 9 9 9 10 12 12 12 12 14 14 14 14 14 14 13 13 14 15 15 15 16 16 15 15 15 15 15 16 16 16 16 15 15 14 14 14 14 14 14 14 14 14 14 14 14 14 15 14 15 15 15 15 15 15 15 15 17 16 18 18 18 18 18 18 18 18 15 10 18 16
4 3 3 3 6 10 11 8 10 11 11 10 10 9 9 9 9 9 10 12 12 13 13 13 14 14 14 13 13 13 13 13 14 14 15 15 15 14 13 14 14 15 15 16 16 15 15 15 15 15 15 15 14 14 14 14 14 14 14 14 14 14 15 15 16 15 15 14 14 13 7 6 10 19 19 18 19 18 17 18 18 18 19 17 18
3 3 3 2 3 7 6 8 10 11 11 11 10 10 9 9 8 10 11 11 12 12 12 12 13 13 13 13 13 13 12 12 13 14 14 14 14 13 12 13 14 15 15 16 15 15 15 15 15 15 15 15 15 15 15 14 14 14 14 15 14 13 15 16 15 14 14 14 13 10 6 6 6 17 18 18 18 17 17 17 17 17 17 18 18
3 3 2 3 3 4 8 6 11 11 10 10 10 9 9 9 9 10 10 10 10 11 12 12 12 12 12 12 12 12 12 11 12 13 14 14 13 11 12 14 15 15 15 15 15 15 15 15 15 15 15 15 15 14 14 14 14 14 15 15 14 15 16 16 15 14 12 13 14 6 6 6 5 8 18 17 17 17 17 17 17 17 17 18 17
7 4 3 3 2 4 7 7 10 10 11 10 10 9 9 8 7 9 10 10 10 11 12 12 11 11 12 11 11 11 11 12 12 13 14 13 12 11 13 15 15 15 14 14 14 15 15 15 15 15 15 15 15 14 14 14 14 15 16 16 16 16 17 16 15 14 13 9 5 5 6 6 5 5 17 17 17 17 17 17 16 17 17 17 19
4 4 4 3 3 5 6 6 8 9 10 10 9 9 8 6 5 7 10 10 11 10 11 11 11 11 10 11 11 11 10 11 12 13 13 13 12 12 14 15 15 14 14 14 15 15 16 15 15 15 15 15 14 15 15 15 15 16 16 18 19 18 17 16 16 14 14 7 5 5 6 6 5 4 16 17 17 17 17 17 16 17 18 18 16
3 4 5 4 3 7 5 6 4 8 9 9 9 9 8 7 5 6 8 10 10 10 11 11 11 11 11 10 11 10 10 11 11 12 12 12 12 13 14 15 14 14 14 15 15 15 15 15 15 15 15 15 14 15 15 16 16 16 16 18 17 17 16 15 13 13 8 5 5 5 5 5 5 4 14 17 17 17 17 14 11 16 18 18 17
2 3 3 3 3 8 7 3 8 7 9 9 8 9 9 7 6 8 8 8 9 9 10 11 11 11 11 11 10 10 10 10 11 11 11 12 12 13 14 14 13 13 14 14 15 15 15 15 15 15 15 15 14 15 15 15 16 16 16 17 16 15 14 13 12 9 6 5 5 5 6 8 3 5 13 17 17 17 16 15 13 14 13 17 18
1 2 3 2 3 9 10 10 9 6 8 7 9 9 10 10 9 9 9 9 10 10 10 10 10 11 11 11 10 10 10 10 11 11 11 12 12 13 14 13 12 12 12 13 14 14 14 14 14 15 15 14 14 14 15 15 16 15 15 15 15 14 13 12 9 6 6 6 6 5 6 11 6 4 15 17 16 15 15 15 15 16 17 18 18
3 1 2 2 4 7 10 10 10 10 7 8 8 7 9 9 9 8 8 9 9 10 10 10 10 10 11 11 10 10 10 10 10 11 11 12 12 13 13 12 12 12 12 12 13 13 13 13 14 14 14 14 14 15 15 15 16 15 15 15 14 14 13 12 7 6 6 6 6 5 5 4 5 9 16 15 14 14 14 15 14 15 16 16 17
3 3 2 2 2 5 8 9 10 8 9 9 7 8 7 9 9 8 8 8 8 9 9 9 10 9 10 10 10 10 10 10 10 10 11 12 12 13 13 12 12 12 12 12 12 12 13 13 13 14 14 14 14 14 15 16 15 15 14 14 14 13 13 11 6 7 6 6 6 6 6 5 5 14 15 14 13 12 13 14 14 14 15 15 15
3 2 2 2 2 1 1 6 7 8 7 5 8 8 7 8 8 8 7 7 8 8 9 9 9 10 10 10 10 10 10 10 10 10 10 11 12 11 12 11 11 11 11 11 12 12 12 12 13 14 14 14 14 14 15 15 15 15 14 14 14 13 12 8 7 6 6 6 6 6 6 5 5 14 15 13 12 12 12 13 13 13 14 13 14
5 4 3 3 2 3 6 6 6 7 8 3 5 2 7 6 6 8 7 6 7 8 8 8 8 9 9 10 10 10 9 10 10 10 9 10 11 11 12 11 11 11 11 11 12 13 13 13 13 13 14 14 14 14 15 15 15 15 14 14 13 13 11 6 6 6 6 6 6 6 6 5 13 14 15 14 13 12 13 13 13 13 13 13 13
6 4 5 7 4 2 3 4 6 5 10 8 10 8 4 3 5 6 6 5 7 8 8 8 8 8 9 9 9 9 9 9 9 10 9 10 11 11 11 11 11 11 11 11 12 13 14 14 13 13 13 13 13 14 15 15 15 14 14 14 13 13 12 7 6 6 6 6 6 6 7 5 13 15 14 14 14 14 14 15 14 14 13 12 13
7 4 7 6 5 6 4 1 5 8 4 6 7 8 5 4 4 4 4 4 3 6 8 7 7 8 8 8 8 8 7 9 9 9 8 8 10 10 10 11 11 11 11 12 13 14 14 14 13 13 13 14 14 14 15 15 15 15 14 14 14 14 12 8 7 6 6 7 6 7 7 6 11 15 15 15 15 14 15 14 14 14 13 13 13
6 8 8 5 5 7 6 6 4 3 3 4 3 6 9 7 4 0 2 3 3 4 6 6 7 6 6 6 7 7 7 6 7 7 6 7 9 8 8 10 11 10 11 11 12 13 13 13 13 13 14 14 14 14 14 15 15 14 14 14 14 13 12 10 7 6 7 7 7 7 7 9 11 13 15 15 14 15 15 14 15 14 14 12 12
8 9 7 10 9 7 7 6 5 5 2 3 2 6 7 8 7 7 2 3 4 4 4 7 6 6 6 6 6 7 7 5 5 5 5 6 6 7 7 9 11 10 10 10 11 11 11 12 13 13 13 14 14 14 14 15 14 14 13 12 11 10 11 8 7 8 8 7 7 8 8 18 15 16 15 14 14 14 14 14 13 12 11 12 11
5 6 8 6 5 5 5 3 4 5 4 0 4 3 4 8 7 7 5 6 5 3 6 4 5 7 7 7 7 6 5 4 5 4 7 6 6 6 7 7 9 10 10 10 10 10 10 11 12 12 12 12 12 12 13 14 14 13 11 11 9 10 8 6 6 8 7 8 7 7 13 18 17 16 16 15 15 15 14 14 15 12 15 15 9
5 5 4 5 4 4 4 4 4 5 4 2 1 3 3 6 7 10 8 6 3 2 4 7 5 6 6 6 6 4 3 3 3 3 5 5 5 6 8 8 8 9 9 9 9 9 9 9 10 11 11 11 10 11 12 13 12 11 11 10 9 7 6 6 7 7 7 7 7 7 17 17 17 17 17 17 17 17 17 16 16 17 17 17 13
4 4 5 5 5 5 4 4 3 6 5 4 3 1 2 4 5 5 5 5 7 3 4 4 4 4 6 5 3 4 3 3 3 3 3 3 4 4 8 8 7 7 8 8 8 9 9 8 9 10 9 9 11 7 6 9 11 10 9 10 8 6 6 6 7 7 7 7 7 11 18 18 17 18 18 18 18 18 17 17 16 17 18 18 17
2 4 4 4 3 3 3 4 4 3 4 4 3 3 2 2 4 4 3 4 3 3 3 3 3 4 5 3 2 2 3 3 3 4 3 4 4 3 6 9 7 7 7 6 7 9 9 9 10 9 7 8 7 6 6 6 7 9 8 7 6 6 7 7 7 7 7 7 7 14 18 18 18 18 18 18 19 19 19 19 18 18 18 16 22
0 1 3 4 3 3 4 2 2 3 3 3 3 3 2 2 4 3 4 3 3 3 4 3 3 2 5 3 2 2 2 3 3 4 3 2 4 6 4 9 9 6 7 5 7 9 10 9 8 8 6 5 6 6 6 5 6 6 6 6 6 6 7 7 7 7 7 8 8 16 18 19 19 18 18 19 19 19 18 18 19 19 18 20 19
1 2 2 2 3 3 4 4 2 1 2 2 2 2 1 3 3 4 5 4 3 3 3 3 3 3 4 3 3 3 4 3 2 2 2 3 3 1 3 3 5 5 5 4 4 4 5 4 4 6 6 5 6 5 5 6 6 6 6 6 6 6 7 7 7 7 7 8 10 15 17 18 19 20 19 19 19 19 19 19 19 18 18 18 19
2 0 1 3 3 3 3 4 3 1 2 2 2 1 3 4 3 3 4 4 3 4 5 3 4 4 5 4 4 5 5 4 4 4 4 3 4 3 3 3 3 3 2 3 4 4 4 4 5 6 5 5 5 5 5 5 6 6 6 6 6 7 7 7 8 8 8 8 10 17 17 18 20 19 18 18 20 20 20 19 19 19 19 19 19
0 1 2 3 4 3 3 2 3 2 3 2 1 3 4 5 3 3 5 4 3 6 4 4 5 5 5 4 5 5 5 5 5 5 5 4 5 4 4 4 4 4 2 4 4 4 4 5 6 5 4 6 6 5 5 5 5 5 5 6 6 7 8 7 8 8 8 8 11 18 17 20 20 20 22 22 21 20 20 19 19 20 19 20 19
0 2 3 2 3 3 3 3 3 3 3 3 4 5 5 6 4 8 4 5 5 7 5 5 6 5 5 5 5 5 5 6 5 6 5 6 5 4 5 6 6 5 4 5 5 5 5 5 6 5 6 6 7 6 6 6 6 5 6 6 6 8 8 7 7 8 8 8 10 17 18 21 22 22 23 23 23 22 22 21 20 20 20 20 20
2 2 3 3 3 3 3 3 3 5 4 5 6 5 5 6 6 7 4 5 6 6 5 5 6 5 5 5 5 6 5 6 6 6 6 6 5 6 6 6 6 5 5 5 5 6 5 5 6 6 6 7 6 5 6 6 6 5 6 7 7 8 9 8 8 8 8 8 10 16 21 22 22 23 23 23 22 22 22 22 22 22 22 21 20
3 2 3 3 3 4 2 3 5 5 5 5 6 6 5 7 6 5 3 6 6 6 6 6 5 5 5 5 5 5 5 6 6 5 8 6 6 6 7 6 7 6 5 6 5 6 6 5 6 7 7 6 6 5 6 6 6 5 6 6 8 7 8 8 8 8 8 8 9 12 22 21 23 23 23 23 24 23 23 22 22 23 23 22 22
2 3 2 2 3 2 0 3 4 5 5 7 6 7 5 8 6 5 4 6 6 5 6 6 6 5 5 6 6 6 6 6 6 7 7 6 6 7 6 6 7 6 6 7 6 7 7 7 6 6 6 6 6 5 5 6 5 6 7 8 7 8 9 8 8 8 9 8 8 8 11 20 23 23 24 24 24 24 24 23 23 23 23 23 23
3 1 2 3 2 1 2 3 5 6 8 8 7 7 5 8 5 5 5 6 5 6 7 6 6 5 6 6 6 5 6 6 7 7 7 7 6 7 6 7 6 6 6 6 6 6 7 7 7 6 5 5 6 6 5 6 7 7 8 9 7 9 8 8 8 9 9 8 9 8 9 10 18 22 23 24 24 24 24 24 24 24 23 23 23
3 1 1 1 2 2 3 4 6 6 8 7 6 7 5 7 5 6 4 6 5 6 7 6 5 7 5 6 6 6 6 7 6 7 8 8 7 7 7 7 6 5 5 7 7 6 6 7 7 5 6 6 7 6 5 7 8 7 8 8 8 9 8 8 8 9 10 9 8 8 8 9 9 14 19 22 23 24 24 24 24 24 24 24 24
3 1 0 2 1 1 3 4 5 7 7 8 6 8 4 6 5 5 5 4 5 7 7 6 5 6 6 5 6 6 6 6 6 7 7 8 7 7 7 6 5 6 6 5 7 5 6 7 5 7 6 7 7 5 6 8 7 7 8 7 8 8 8 9 9 9 9 9 8 9 8 8 9 8 9 17 22 23 24 24 25 24 25 25 25
2 1 2 2 3 2 2 5 5 7 6 9 7 8 4 5 5 6 5 4 8 7 6 6 6 6 6 5 6 6 7 6 5 7 7 7 8 7 7 6 5 6 7 6 6 6 6 7 4 7 6 7 7 6 7 8 9 9 7 7 8 8 9 9 9 9 9 8 8 8 9 8 8 8 9 9 12 20 22 24 24 25 25 25 25
3 3 3 3 4 3 3 7 5 6 6 8 7 7 6 6 7 5 5 7 6 6 6 6 6 5 6 6 6 7 7 6 6 6 9 6 7 8 6 6 6 7 7 6 6 7 6 7 6 4 8 7 8 8 7 9 9 9 7 8 8 8 9 9 9 8 7 8 8 8 8 8 8 8 9 9 9 11 21 21 23 24 24 25 25
4 4 4 4 5 5 5 7 8 7 8 8 8 8 5 5 8 6 4 8 5 5 5 6 6 6 5 6 5 6 6 6 7 7 9 8 7 7 6 6 5 7 7 6 8 5 6 8 7 6 6 8 9 9 8 8 9 8 8 9 8 9 9 8 8 7 7 10 8 8 8 8 8 9 9 9 9 9 14 21 21 22 23 24 24
3 4 4 6 6 5 5 6 7 6 7 8 8 8 6 5 6 5 6 9 5 3 5 5 6 5 5 6 6 6 6 7 7 8 8 7 7 7 6 6 6 7 7 7 7 5 6 7 10 7 6 8 8 8 8 8 7 8 9 9 8 8 7 8 7 8 9 9 8 8 7 7 8 9 8 8 8 9 9 14 19 19 21 23 24
3 4 5 6 5 6 6 6 7 6 7 8 8 9 8 7 6 7 8 6 5 6 5 6 6 7 6 6 6 6 6 7 8 7 9 7 7 7 7 5 5 7 8 8 7 7 7 7 10 9 8 8 7 6 6 8 8 8 8 8 7 8 7 7 7 8 8 7 7 6 6 8 7 8 8 8 8 8 9 9 9 9 11 22 22
5 5 7 7 6 7 6 7 6 6 6 7 7 8 6 6 9 7 8 6 6 7 6 5 5 5 6 6 6 6 6 7 7 6 8 7 7 6 7 5 5 6 8 9 7 7 7 10 8 8 9 8 8 6 5 8 9 9 8 7 7 6 8 7 8 8 7 8 7 7 8 6 8 8 8 7 7 8 9 8 8 8 8 13 21
5 7 7 7 7 7 8 8 7 7 7 7 6 8 9 8 6 6 7 4 5 6 7 6 6 5 5 6 5 6 6 7 6 6 8 8 7 7 7 6 5 8 8 8 5 7 6 6 6 6 7 8 7 6 3 2 9 7 6 7 7 5 6 8 9 8 8 6 6 8 6 8 8 8 7 6 8 8 8 8 8 8 8 8 10
6 6 8 8 8 6 7 8 7 7 5 5 6 5 1 5 9 7 7 5 6 6 7 5 5 5 6 5 5 5 6 6 6 6 7 7 8 7 7 6 6 8 8 6 6 6 5 5 5 9 5 7 5 4 5 1 3 5 6 2 2 3 4 8 8 7 6 6 6 7 7 7 8 7 7 7 8 8 8 7 7 8 8 8 8
8 8 8 8 8 7 7 8 8 7 5 4 4 4 4 5 6 8 5 6 6 4 5 5 5 6 6 6 5 5 6 7 6 6 7 6 8 8 7 6 5 5 8 8 7 8 6 6 5 8 7 4 5 6 7 3 3 2 2 4 0 1 1 4 3 5 6 5 5 8 6 7 7 6 6 7 7 7 7 7 8 8 8 9 8
8 7 8 9 8 7 8 7 7 6 6 5 6 6 7 8 8 8 6 5 7 4 6 5 5 7 8 6 6 5 6 7 6 5 7 7 6 8 6 6 7 5 8 8 7 6 6 5 5 4 6 6 4 7 6 6 4 3 1 0 1 1 1 2 2 2 3 3 6 6 7 7 7 7 6 8 7 6 6 6 8 7 8 8 7
8 9 9 9 7 9 8 8 7 7 6 7 8 9 10 10 9 10 9 11 8 6 7 6 4 4 6 6 5 5 5 6 5 6 7 7 6 6 7 7 8 6 7 8 7 6 4 4 4 6 5 8 5 3 7 6 7 2 5 3 1 2 1 1 1 1 4 3 6 7 8 9 8 7 7 8 7 7 6 7 7 7 7 7 8
9 8 9 8 8 8 8 7 6 7 8 9 10 9 10 13 11 10 8 7 8 6 8 9 6 6 6 3 6 4 4 6 6 6 6 6 7 7 7 8 7 6 6 7 6 6 6 7 5 5 7 5 8 6 5 5 7 9 7 3 0 3 2 1 2 0 3 1 3 4 5 7 5 5 6 7 8 7 6 7 7 7 7 7 7
8 7 7 7 7 9 9 8 7 8 8 10 10 8 7 9 13 13 11 10 11 2 2 4 7 5 5 6 5 4 4 8 6 5 6 6 7 6 6 6 6 6 5 7 8 7 6 5 4 7 6 4 6 8 7 4 6 8 7 6 8 5 3 3 1 2 2 2 4 4 4 5 5 4 5 5 5 6 6 5 6 6 6 6 7
8 7 8 7 9 9 10 9 7 7 9 10 9 7 9 9 9 9 9 9 9 8 5 5 5 5 7 6 5 5 6 6 7 6 6 6 6 6 5 6 7 6 6 7 7 6 7 6 7 7 6 6 5 8 4 1 5 1 3 6 7 7 6 7 3 2 2 1 3 4 1 5 5 2 3 4 5 5 5 5 5 5 5 5 5
9 10 9 9 8 8 9 9 9 8 9 10 9 8 5 10 11 10 8 5 8 8 5 4 6 5 8 5 6 6 6 6 6 6 5 5 4 6 6 7 7 6 6 6 6 6 7 7 7 7 7 6 5 3 6 4 4 5 4 4 5 5 5 4 3 3 2 1 2 1 5 6 2 1 3 2 3 3 4 4 3 3 4 5 5
8 7 7 9 9 8 9 11 10 9 9 9 7 6 5 7 11 10 13 9 8 7 5 7 6 5 8 6 6 6 6 6 5 4 5 4 5 5 6 7 7 6 6 7 7 8 7 8 7 7 6 8 5 6 7 5 5 3 2 4 3 1 3 4 4 4 3 3 1 3 2 4 7 7 4 7 6 3 3 3 3 4 5 5 6
7 8 8 9 9 10 9 10 11 8 9 9 7 8 7 6 10 12 14 14 11 11 10 7 7 6 9 7 6 6 5 6 5 5 4 4 5 4 6 6 5 5 6 7 7 7 7 7 7 7 7 7 7 7 7 5 5 6 5 5 4 3 3 2 1 2 2 1 3 2 2 2 2 5 6 5 6 4 3 1 3 4 4 5 4
Wind_Direction
210 182 122 172 141 149 138 144 132 121 116 111 111 108 108 106 102 101 104 99 90 90 91 92 90 86 83 82 84 82 85 85 82 81 78 76 74 71 69 67 63 60 58 57 55 52 50 49 48 48 47 46 44 43 41 43 45 44 42 40 39 45 50 58 58 53 47 45 49 49 47 50 54 56 52 48 44 41 38 37 35 26 25 26 29
160 171 129 174 160 147 141 148 139 133 126 119 113 113 112 108 106 102 101 94 91 98 100 94 90 86 84 80 81 89 90 87 86 85 82 79 75 73 70 68 64 62 58 55 54 51 48 47 46 45 45 46 45 44 42 42 46 45 45 43 42 53 66 70 65 59 51 47 50 49 50 50 51 53 54 52 47 42 38 37 36 33 24 30 29
119 127 143 194 137 141 157 155 141 135 131 125 121 118 118 112 110 109 104 97 99 99 101 94 88 85 84 83 82 82 88 91 88 87 85 81 76 74 72 69 66 62 59 55 52 50 48 47 47 46 45 44 46 45 43 41 41 47 48 46 46 62 70 70 67 61 56 54 53 51 46 50 51 52 52 50 48 44 40 38 36 35 29 30 29
140 135 132 203 149 160 158 149 144 131 127 125 124 124 122 119 115 114 111 104 103 103 98 93 91 90 86 83 81 80 83 88 89 87 85 84 81 77 73 69 65 61 58 56 52 49 47 48 48 49 47 45 44 45 44 42 41 45 49 49 53 67 73 69 65 59 56 54 56 56 47 38 43 53 51 48 46 43 41 39 38 36 32 29 28
154 142 134 152 175 142 136 143 135 127 126 128 131 132 127 126 124 114 108 108 107 105 99 96 94 92 89 87 87 86 84 86 89 92 91 88 85 81 77 72 66 59 55 54 53 50 49 48 50 51 50 49 47 45 44 44 44 45 47 53 61 67 75 73 66 60 57 58 58 55 41 42 45 53 53 50 47 43 41 39 37 36 35 32 27
158 137 141 154 146 132 124 142 139 134 130 134 136 133 134 129 128 121 116 113 110 109 102 97 95 91 92 89 88 87 86 90 93 95 94 91 89 86 80 73 67 60 54 53 51 51 50 50 51 52 52 51 50 48 48 48 48 46 48 56 61 68 74 73 69 62 56 59 58 47 41 40 43 52 56 52 49 45 42 39 37 36 35 33 30
146 144 149 142 120 131 143 157 142 142 140 140 141 138 139 135 132 124 120 120 111 106 103 98 91 89 91 92 89 88 89 91 93 92 93 93 90 80 74 70 65 59 54 52 50 50 50 50 51 53 53 51 51 52 54 54 53 52 55 58 64 73 78 75 69 66 62 57 40 41 39 38 34 53 58 53 49 46 42 39 38 38 36 34 32
128 142 149 144 146 160 155 157 151 147 144 144 143 144 142 131 118 122 128 120 115 114 105 100 96 93 89 92 93 91 91 94 92 91 90 92 89 83 77 70 65 58 54 52 51 50 50 51 52 53 53 51 51 55 58 60 59 58 60 72 78 80 78 74 69 64 63 54 48 43 43 37 33 34 61 56 51 49 45 39 38 38 37 37 35
156 147 147 147 167 156 164 163 142 152 149 145 145 144 142 129 110 105 118 124 126 122 110 107 103 100 94 90 95 96 97 94 92 89 90 92 91 85 78 71 64 59 56 54 51 51 53 53 53 54 54 53 53 59 62 63 62 61 69 77 80 80 74 67 63 61 51 40 38 46 48 44 38 35 60 58 54 50 46 43 35 39 39 39 38
165 135 142 150 162 165 139 203 155 175 154 154 152 148 144 134 129 132 128 125 122 120 121 116 113 109 108 101 95 99 98 98 97 94 95 93 96 89 81 75 66 61 58 55 53 53 56 58 57 56 57 58 57 59 59 63 64 66 71 78 78 76 71 68 63 51 47 42 41 34 54 53 33 51 60 59 58 53 49 42 45 43 40 41 40
150 152 140 160 157 163 163 163 179 162 167 162 163 155 149 146 144 144 141 141 132 135 130 126 123 119 113 110 108 107 106 105 104 104 103 105 101 92 85 81 73 64 60 57 55 55 59 62 63 62 62 62 61 60 58 59 63 68 70 73 71 69 66 62 58 52 48 47 43 31 24 49 46 52 60 59 58 56 53 47 45 47 42 41 40
168 137 141 162 171 173 173 162 170 175 174 169 170 157 152 148 148 147 149 147 145 140 138 131 127 123 118 116 116 112 112 111 112 111 108 106 104 96 92 88 78 70 65 61 58 58 60 63 66 68 69 67 64 61 59 59 61 66 68 68 66 63 60 57 57 51 47 41 39 27 24 24 50 56 57 57 57 55 54 54 47 49 48 45 43
129 143 133 158 186 192 187 165 167 179 169 168 173 159 164 147 148 146 149 148 146 144 138 132 129 124 118 115 115 113 110 112 114 114 112 111 107 100 97 89 82 76 71 66 61 59 62 65 67 69 72 71 66 63 59 57 58 61 63 64 63 60 56 50 47 45 39 35 30 22 21 16 44 57 56 55 54 54 54 56 50 50 49 48 48
107 119 128 154 158 201 264 158 168 161 160 165 175 163 166 148 148 149 153 152 146 143 142 137 137 131 126 121 122 122 121 119 118 117 116 114 108 106 101 97 89 83 78 73 65 60 61 65 67 71 72 70 67 63 60 58 59 60 59 59 57 54 48 43 39 37 34 27 22 22 21 11 50 55 52 52 52 53 51 54 51 48 50 46 48
73 49 71 68 74 190 179 203 156 168 152 203 100 330 138 140 147 148 159 152 142 146 147 141 140 135 129 128 129 130 126 125 125 123 121 118 117 115 109 104 96 88 84 78 69 62 59 60 63 67 70 69 66 63 61 60 61 63 63 59 55 51 48 47 38 32 28 19 14 18 14 357 55 48 46 48 48 47 46 46 45 47 47 44 44
43 28 62 44 34 33 232 178 159 198 165 179 154 199 146 128 150 137 125 141 149 151 149 146 142 141 138 134 132 130 130 128 128 128 127 127 128 125 117 109 98 91 86 80 72 65 60 58 62 65 66 65 64 62 60 60 60 58 58 56 53 49 44 46 40 29 19 16 11 12 3 353 47 46 43 45 44 41 39 40 39 38 40 39 39
48 31 56 53 28 40 9 69 154 178 171 174 175 158 136 132 258 110 100 101 97 133 148 150 145 139 140 141 137 126 125 132 134 137 137 137 131 126 119 112 100 92 86 81 74 67 63 61 64 67 65 63 61 59 58 59 58 56 55 53 50 47 40 36 39 25 21 17 15 8 359 340 44 46 44 43 43 42 39 40 38 36 39 36 35
41 38 32 46 41 30 10 12 8 114 158 170 189 162 160 166 132 314 149 126 110 109 144 141 144 134 131 126 121 122 123 130 136 140 140 129 121 119 123 114 101 95 89 86 81 72 67 63 64 66 66 64 60 57 57 58 59 60 58 54 50 46 42 41 40 26 24 22 14 6 5 350 47 46 45 43 40 41 36 36 37 35 35 27 25
24 19 12 23 14 9 25 11 344 26 4 170 162 175 155 152 167 181 207 131 131 105 125 135 144 138 119 116 115 112 111 114 129 136 126 108 111 127 120 115 111 102 97 92 90 83 74 68 65 63 62 60 57 57 58 57 59 61 61 59 53 47 43 43 38 32 28 24 15 12 3 14 35 36 41 46 41 41 37 35 38 34 33 30 26
22 15 15 13 9 357 6 339 7 23 341 241 144 133 153 163 156 137 104 74 77 107 103 114 124 120 110 102 99 96 97 82 81 102 122 128 112 117 125 120 121 115 107 103 98 94 86 78 71 66 61 58 54 49 52 55 57 58 60 60 57 55 50 47 43 40 32 26 21 11 21 23 27 35 33 35 33 32 31 24 23 22 23 9 29
9 21 14 348 354 16 336 355 5 16 333 341 87 112 136 167 153 153 150 127 173 182 127 101 96 100 107 112 114 111 94 100 108 125 128 130 130 127 138 141 129 121 112 109 107 101 95 87 80 70 63 62 54 46 43 50 54 56 54 54 55 54 51 51 48 45 38 28 24 21 35 32 31 33 30 31 29 22 17 13 12 10 6 20 12
350 343 355 357 350 353 345 341 349 2 335 359 354 95 150 173 141 146 161 161 175 163 120 124 129 124 126 138 132 132 132 144 145 146 151 145 137 140 143 137 132 124 119 115 112 102 94 84 76 70 61 61 66 56 47 46 48 52 53 55 52 48 41 46 48 43 40 28 23 27 39 39 37 39 39 37 35 30 24 21 16 10 9 11 17
353 347 334 344 345 312 334 344 338 342 329 357 359 331 194 179 141 154 139 158 144 134 107 122 133 160 139 124 131 146 147 144 150 161 176 151 122 123 134 131 135 135 126 120 109 102 91 80 71 70 61 59 67 64 58 55 50 46 48 52 53 46 45 42 45 42 36 30 24 23 36 41 42 41 42 40 38 35 32 31 28 23 18 16 17
278 286 293 303 328 339 314 291 297 334 348 343 340 315 209 183 130 127 116 122 134 141 138 147 151 179 111 135 158 115 105 87 123 149 108 174 126 125 113 143 141 141 131 120 90 82 83 81 76 76 65 62 64 61 61 62 61 55 51 53 57 49 49 47 46 42 36 27 25 25 35 40 41 42 44 41 39 36 32 32 31 28 24 22 21
236 285 299 293 312 312 312 301 313 13 321 312 324 305 213 149 116 121 121 125 134 131 132 124 109 108 99 81 82 95 85 83 98 69 71 40 81 356 113 128 155 158 137 113 105 92 82 80 76 71 58 60 60 51 56 60 55 56 53 52 57 55 51 45 45 44 37 32 32 30 36 42 45 44 43 41 40 38 35 34 33 32 28 23 20
286 288 292 306 300 295 276 281 309 293 252 273 266 210 159 122 126 129 123 110 110 102 89 94 96 80 86 85 84 79 74 81 76 73 82 113 74 72 52 73 69 62 75 82 68 81 86 78 67 68 71 71 66 62 48 53 61 59 57 54 57 58 55 50 50 53 44 38 37 40 41 45 48 48 46 45 42 40 36 34 36 35 32 31 28
245 252 276 282 282 293 278 267 283 258 246 218 179 105 92 81 77 63 109 94 112 90 71 85 77 74 79 86 90 85 80 76 72 67 67 67 66 58 64 72 74 67 57 97 77 53 55 72 79 78 80 77 73 63 59 57 54 64 60 59 59 66 61 57 56 56 49 43 38 40 46 49 46 47 45 42 40 38 37 34 34 33 32 32 31
288 291 292 275 278 281 285 292 253 222 178 147 110 97 94 90 75 70 40 88 92 87 80 70 81 76 78 82 92 91 98 87 79 78 66 65 59 56 59 65 70 64 60 71 77 65 68 79 86 74 70 71 72 65 64 56 52 53 63 55 60 69 70 66 64 61 57 50 44 40 44 48 48 47 46 44 40 37 35 34 33 31 30 27 26
244 265 286 295 289 288 295 276 207 181 145 131 104 101 99 94 81 74 62 79 86 86 91 87 80 81 73 81 96 104 98 100 92 87 77 66 61 55 61 61 67 66 73 75 82 88 74 67 66 67 67 67 64 59 68 59 50 43 59 57 61 70 76 70 68 64 60 58 51 43 43 46 47 47 45 42 40 37 35 34 33 31 29 27 26
233 266 277 288 300 297 276 198 176 147 131 117 108 100 101 92 85 82 78 82 80 94 86 80 84 84 77 77 81 94 99 103 101 93 93 83 74 66 62 57 57 46 54 67 57 67 70 67 67 69 68 69 66 48 59 64 50 44 52 62 66 71 76 73 69 66 65 60 56 48 41 44 44 44 43 42 39 37 36 34 34 32 30 28 27
257 248 284 292 290 300 27 141 125 114 106 103 97 95 91 97 92 95 77 91 90 92 81 76 73 69 77 77 81 83 95 94 98 94 88 88 75 74 68 63 61 50 52 67 57 68 68 62 58 66 72 74 71 61 62 69 60 51 56 66 75 78 75 71 71 68 65 58 57 51 37 39 42 40 39 39 38 37 36 34 33 32 31 30 28
217 228 271 283 323 347 72 94 101 99 105 95 99 94 92 101 95 93 98 87 88 90 84 78 77 70 69 76 77 82 91 90 93 94 93 85 79 76 72 70 65 61 60 67 72 69 74 71 62 59 63 73 75 64 56 73 64 61 71 72 72 75 74 72 70 66 64 60 56 50 42 36 36 38 37 35 36 36 35 34 32 31 31 30 29
257 242 279 32 31 11 84 88 104 106 106 97 98 92 95 89 91 84 81 98 99 87 84 73 85 81 69 72 80 79 81 92 85 94 95 89 89 85 78 72 68 67 65 68 74 71 70 69 61 66 64 68 65 60 66 68 72 67 73 72 75 73 72 70 66 63 61 55 53 49 45 38 34 32 33 33 30 32 33 33 31 30 30 29 28
223 269 167 90 47 28 72 81 89 99 100 98 105 104 64 88 73 79 75 72 92 84 90 84 79 81 73 65 74 77 81 80 96 94 95 96 90 83 85 78 75 76 68 62 70 61 71 69 63 67 57 66 68 46 75 76 69 67 65 71 73 71 69 66 61 59 61 57 49 49 43 39 35 31 27 27 28 27 29 30 30 28 27 28 27
193 142 145 124 82 64 83 87 87 95 99 98 96 100 86 95 85 84 77 82 88 90 88 91 83 84 78 67 67 76 80 83 85 100 90 96 98 91 78 75 75 74 73 56 74 67 66 66 50 80 73 69 72 59 71 75 75 67 60 62 65 69 65 65 60 56 56 56 53 47 44 39 34 33 28 26 21 21 25 27 28 26 25 26 26
186 162 139 120 98 81 82 104 85 95 88 89 90 90 87 94 86 76 88 72 61 78 79 87 87 81 83 80 71 75 77 82 85 89 94 85 90 91 86 83 78 79 73 69 68 69 69 68 45 50 90 66 77 65 63 78 72 72 65 67 67 66 67 63 61 58 53 57 50 46 42 38 34 31 30 28 25 18 22 25 25 24 21 23 24
174 159 149 126 95 85 99 108 106 106 101 94 87 83 75 87 92 74 72 85 51 48 63 81 77 79 76 79 72 76 77 79 84 87 95 92 88 88 81 79 76 81 78 70 67 62 75 85 59 45 70 95 83 84 70 74 78 74 72 70 64 68 63 62 60 59 55 54 48 44 41 36 34 32 30 28 25 21 17 22 23 22 19 21 24
184 159 154 140 128 119 112 103 104 101 101 104 100 95 79 60 74 94 78 74 58 34 46 46 71 72 77 79 74 78 80 84 85 90 89 88 89 90 85 75 80 84 83 74 70 64 68 76 79 51 55 82 80 83 84 79 80 78 68 66 63 66 66 64 62 57 54 50 46 44 39 38 36 33 30 29 28 23 22 17 20 20 17 19 23
169 154 137 126 120 121 117 106 109 108 105 105 111 101 93 80 73 81 74 72 61 49 38 57 36 21 51 73 78 86 89 89 91 92 97 96 90 84 82 70 77 84 81 75 67 63 68 65 86 82 65 63 80 68 85 94 84 78 73 62 66 66 68 68 64 61 55 53 50 43 44 35 38 34 31 31 27 28 25 23 21 19 14 19 22
161 152 140 137 133 127 127 120 117 115 108 115 118 110 106 107 102 90 73 52 58 71 45 54 46 53 53 67 72 84 85 88 87 90 93 94 92 83 81 65 66 80 80 74 65 62 72 79 64 85 85 69 51 51 50 90 84 75 76 64 57 67 66 68 64 59 56 47 42 38 37 28 36 30 31 26 30 29 27 24 24 19 20 18 24
160 156 148 147 151 146 140 133 135 137 140 132 127 132 131 109 77 86 100 81 85 79 68 51 57 57 64 68 70 75 81 84 81 90 93 92 86 86 85 70 69 76 78 78 78 75 66 79 87 56 76 78 41 10 12 32 104 75 61 65 56 34 63 65 59 54 51 47 41 45 30 33 29 27 20 24 30 28 28 24 22 22 21 22 19
171 162 157 157 154 153 146 139 141 148 144 136 141 130 108 127 135 129 114 107 100 93 94 70 71 67 62 65 68 71 76 79 81 85 86 92 96 89 83 84 82 84 85 85 75 69 63 59 87 75 39 81 57 7 341 57 37 130 125 90 37 13 44 56 56 43 48 43 44 45 33 35 28 21 15 26 27 26 25 22 23 26 24 26 23
166 171 160 155 154 158 153 148 148 150 134 116 115 113 112 98 121 128 123 108 51 51 85 86 80 81 65 62 64 69 80 78 78 83 93 92 97 96 91 91 81 97 93 72 67 64 59 68 64 112 101 64 88 32 21 30 140 131 132 89 26 47 297 11 17 41 30 47 40 44 34 32 26 24 18 27 26 20 20 19 24 24 25 25 24
167 170 167 163 160 161 158 154 145 134 120 94 96 92 90 90 79 94 83 80 119 95 84 75 77 79 69 61 56 68 74 83 79 89 93 87 93 98 100 85 79 70 90 91 74 66 57 55 72 71 114 81 46 39 26 25 83 124 87 111 172 118 13 341 8 305 349 24 45 41 30 26 18 17 26 29 16 18 17 22 26 24 25 26 25
176 175 172 170 162 161 157 153 145 136 122 118 119 122 115 98 97 82 90 90 73 91 96 68 63 85 88 64 56 60 77 86 83 83 91 95 90 97 95 87 84 75 89 97 94 97 89 84 80 79 60 118 86 97 35 32 49 25 141 113 53 37 195 242 53 280 342 4 12 38 29 17 12 16 18 13 12 17 13 20 24 27 28 27 25
182 180 169 169 159 155 146 138 131 133 135 139 143 148 146 134 129 122 121 116 121 135 140 139 134 113 107 100 65 59 85 87 79 83 88 98 94 88 90 97 97 96 94 100 107 93 69 68 47 87 78 48 117 87 62 27 54 43 49 81 139 165 173 257 83 304 327 84 340 45 55 15 360 14 20 19 13 4 13 11 19 24 25 27 23
181 168 164 161 158 152 151 144 150 144 144 150 157 153 155 144 142 141 142 148 138 142 85 104 121 113 101 92 91 70 67 90 79 81 86 85 88 88 97 100 102 100 97 93 83 82 80 70 59 71 69 81 85 98 100 81 36 33 32 52 60 53 101 121 139 94 10 319 25 354 344 17 346 12 22 22 9 9 2 14 14 21 25 27 26
163 162 159 158 158 158 153 151 149 153 154 159 167 171 156 145 128 129 138 144 143 142 149 129 114 119 104 103 101 81 69 72 89 78 79 87 98 98 103 101 94 85 88 86 98 102 92 72 72 77 71 63 84 114 113 28 116 49 18 53 57 49 47 60 82 138 137 187 309 329 299 338 344 340 37 25 18 10 358 6 16 24 33 27 29
165 167 165 162 155 155 153 150 155 160 161 166 166 172 179 149 138 134 124 114 126 132 139 127 121 124 109 105 98 89 80 67 72 86 83 93 99 108 101 97 95 92 94 96 91 87 87 91 84 76 78 68 67 96 99 85 99 145 130 73 70 73 66 74 55 64 122 103 293 50 320 326 334 286 14 83 45 13 7 360 22 38 36 29 24
165 159 159 157 157 153 157 157 159 164 167 166 170 161 159 150 136 143 135 137 136 130 138 137 132 137 116 113 103 98 94 87 75 79 91 87 96 96 98 100 103 105 100 105 98 85 81 79 78 85 85 82 66 75 91 99 86 67 73 144 96 41 42 31 33 53 40 80 146 305 326 356 349 314 339 360 4 13 355 2 30 43 35 34 21
163 162 163 165 158 157 161 167 163 163 167 166 164 159 158 157 145 148 145 146 154 147 145 146 141 138 127 122 115 111 103 105 102 87 87 97 96 95 102 100 100 106 107 99 93 97 93 92 90 86 81 92 87 89 84 72 82 72 57 71 94 118 160 135 155 64 119 103 40 331 313 277 235 303 305 342 335 341 337 46 83 55 47 32 27